User: anonymous   Login
Location: Chacón
(10.5789°N, 66.9317°W)
Time: 12:13:28
(UTC+00:00)
Language:

Centaur AC-72 - Orbit

View from above orbital plane
View from above orbital plane
View from above satellite
View from above satellite

Ground track
Ground track

The orbit data is extracted from the following two-line orbital elements,

1 21907U 92013B   24203.44404177 -.00000021  00000-0  00000-0 0  9990
2 21907  18.9310 159.7357 6936946 221.5083  51.7104  2.25609093266710
Epoch (UTC): 21 July 2024 10:39:25
Eccentricity: 0.6936946
inclination: 18.9310°
perigee height: 1143 km
apogee height: 35212 km
right ascension of ascending node: 159.7357°
argument of perigee: 221.5083°
revolutions per day: 2.25609093
mean anomaly at epoch: 51.7104°
orbit number at epoch: 26671

The dashed part of the orbit path shows where the satellite is in the earth's shadow,  

DLR